EW0295 Weather Reports


time (UTC)temp
C
wind
direction
speed
KPH
gust
KPH
rain 1hr
cm
rain 24hr
cm
rain mn
cm
humidity
%
barometer
mb
20260506102703 13 43 6.4 14.5 0.00 0.00 0.00 55 1011.6
20260506101803 13 80 4.8 16.1 0.00 0.00 0.00 55 1011.6
20260506100903 13 30 4.8 16.1 0.00 0.00 0.00 57 1011.7
20260506100003 12 98 4.8 16.1 0.00 0.00 0.00 57 1011.7
20260506095403 12 83 4.8 16.1 0.00 0.00 0.00 61 1011.8
20260506094503 12 100 6.4 14.5 0.00 0.00 0.00 59 1011.7
20260506093603 12 94 4.8 14.5 0.00 0.00 0.00 61 1011.8
20260506092703 11 68 6.4 12.9 0.00 0.00 0.00 62 1011.8
20260506091803 11 58 4.8 11.3 0.00 0.00 0.00 62 1011.8
20260506090903 12 76 4.8 14.5 0.00 0.00 0.00 63 1011.8
20260506090003 12 62 4.8 14.5 0.00 0.00 0.00 62 1011.8
20260506085403 12 73 3.2 14.5 0.00 0.00 0.00 64 1011.8
20260506084503 11 36 6.4 12.9 0.00 0.00 0.00 66 1011.7
20260506083603 11 74 4.8 14.5 0.00 0.00 0.00 66 1011.8
20260506082703 11 350 3.2 12.9 0.00 0.00 0.00 67 1011.8
20260506081803 11 2 1.6 8.0 0.00 0.00 0.00 69 1011.8
20260506080903 11 86 3.2 12.9 0.00 0.00 0.00 68 1011.9
20260506072703 10 36 4.8 11.3 0.00 0.00 0.00 74 1011.8
20260506071803 10 33 1.6 8.0 0.00 0.00 0.00 74 1011.7
20260506070903 9 25 3.2 9.7 0.00 0.00 0.00 75 1011.7
20260506070219 9 11 1.6 6.4 0.00 0.00 0.00 75 1011.8
20260506062016 7 355 3.2 8.0 0.00 0.00 0.00 77 1011.8
20260506060903 7 358 3.2 9.7 0.00 0.00 0.00 78 1011.9
20260506050903 6 18 1.6 6.4 0.00 0.00 0.00 81 1011.7
20260506044503 5 0 0.0 3.2 0.00 0.00 0.00 82 1011.6
20260506043603 5 0 0.0 3.2 0.00 0.00 0.00 82 1011.7
20260506042703 4 0 0.0 1.6 0.00 0.00 0.00 83 1011.7
20260506041803 4 0 0.0 3.2 0.00 0.00 0.00 84 1011.8
20260506040903 3 0 0.0 1.6 0.00 0.00 0.00 85 1011.7
20260506040003 3 0 0.0 3.2 0.00 0.00 0.00 86 1011.7
20260506035403 3 0 0.0 3.2 0.00 0.00 0.00 86 1011.8
20260506034503 2 0 0.0 0.0 0.00 0.00 0.00 86 1011.9
20260506033603 2 0 0.0 0.0 0.00 0.00 0.00 85 1011.9
20260506032915 2 0 0.0 0.0 0.00 0.00 0.00 85 1012.0
20260506032019 3 0 0.0 0.0 0.00 0.00 0.00 84 1012.0
20260506030903 3 344 1.6 3.2 0.00 0.00 0.00 84 1012.2
20260506030003 3 0 0.0 3.2 0.00 0.00 0.00 84 1012.2
20260506025403 3 0 0.0 1.6 0.00 0.00 0.00 84 1012.3
20260506024503 3 0 0.0 1.6 0.00 0.00 0.00 84 1012.3
20260506023603 3 0 0.0 1.6 0.00 0.00 0.00 84 1012.4
20260506022703 3 0 0.0 1.6 0.00 0.00 0.00 83 1012.5
20260506021803 3 0 0.0 3.2 0.00 0.00 0.00 84 1012.4
20260506020903 3 0 0.0 1.6 0.00 0.00 0.00 83 1012.5
20260506020217 3 0 0.0 1.6 0.00 0.00 0.00 83 1012.5
20260506015403 3 0 0.0 1.6 0.00 0.00 0.00 83 1012.5
20260506014503 3 0 0.0 0.0 0.00 0.00 0.00 83 1012.5
20260506013603 3 0 0.0 0.0 0.00 0.00 0.00 83 1012.5
20260506012703 3 0 0.0 1.6 0.00 0.00 0.00 82 1012.3
20260506012018 3 24 1.6 4.8 0.00 0.00 0.00 81 1012.1
20260506010903 4 341 3.2 6.4 0.00 0.00 0.00 81 1012.0
20260506010003 4 343 1.6 4.8 0.00 0.00 0.00 81 1012.1
20260506005403 4 342 1.6 4.8 0.00 0.00 0.00 81 1012.1
20260506004504 4 351 1.6 4.8 0.00 0.00 0.00 81 1012.1
20260506003603 4 343 3.2 9.7 0.00 0.00 0.00 80 1012.1
20260506002703 4 5 1.6 4.8 0.00 0.00 0.00 80 1012.1
20260506001803 5 341 3.2 6.4 0.00 0.00 0.00 80 1012.2
20260506001117 5 341 1.6 6.4 0.00 0.00 0.00 79 1012.2
20260506000003 5 352 3.2 8.0 0.00 0.00 0.00 78 1012.2
20260505235403 5 348 3.2 8.0 0.00 0.00 0.00 78 1012.2
20260505234503 5 345 4.8 11.3 0.00 0.00 0.00 78 1012.2
20260505233603 5 341 4.8 11.3 0.00 0.00 0.00 78 1012.3
20260505232703 5 339 3.2 9.7 0.00 0.00 0.00 78 1012.3
20260505232017 5 348 4.8 11.3 0.00 0.00 0.00 77 1012.4
20260505230903 5 343 4.8 9.7 0.00 0.00 0.00 77 1012.3
20260505230003 5 345 3.2 9.7 0.00 0.00 0.00 77 1012.3
20260505225616 5 346 3.2 9.7 0.00 0.00 0.00 77 1012.4
20260505224503 5 349 1.6 4.8 0.00 0.00 0.00 77 1012.4
20260505223603 5 347 3.2 8.0 0.00 0.00 0.00 77 1012.4
20260505222703 5 0 0.0 4.8 0.00 0.00 0.00 77 1012.5
20260505221803 5 0 0.0 4.8 0.00 0.00 0.00 77 1012.4
20260505220903 6 2 1.6 6.4 0.00 0.00 0.00 76 1012.4
20260505220003 6 346 3.2 8.0 0.00 0.00 0.00 76 1012.3
20260505215403 6 344 1.6 6.4 0.00 0.00 0.00 76 1012.3
20260505214503 6 324 1.6 6.4 0.00 0.00 0.00 75 1012.4
20260505213818 6 323 3.2 6.4 0.00 0.00 0.00 75 1012.4
20260505212703 7 313 1.6 4.8 0.00 0.00 0.00 74 1012.4
20260505211803 7 0 0.0 3.2 0.00 0.00 0.00 73 1012.4
20260505211116 7 0 0.0 4.8 0.00 0.00 0.00 72 1012.5
20260505210003 7 308 1.6 6.4 0.00 0.00 0.00 71 1012.4
20260505205619 7 303 1.6 6.4 0.00 0.00 0.00 71 1012.4
20260505204503 7 0 0.0 4.8 0.00 0.00 0.00 71 1012.5
20260505203818 7 0 0.0 0.0 0.00 0.00 0.00 69 1012.5
20260505202703 8 0 0.0 0.0 0.00 0.00 0.00 68 1012.5
20260505201803 8 0 0.0 3.2 0.00 0.00 0.00 68 1012.5
20260505200903 8 307 1.6 6.4 0.00 0.00 0.00 67 1012.4
20260505200219 7 307 1.6 6.4 0.00 0.00 0.00 69 1012.4
20260505195403 8 0 0.0 0.0 0.00 0.00 0.00 69 1012.4
20260505194718 8 0 0.0 0.0 0.00 0.00 0.00 68 1012.2
20260505193817 8 0 0.0 0.0 0.00 0.00 0.00 66 1012.3
20260505192916 8 0 0.0 0.0 0.00 0.00 0.00 65 1012.2
20260505191803 8 0 0.0 0.0 0.00 0.00 0.00 65 1012.2
20260505190903 8 0 0.0 0.0 0.00 0.00 0.00 64 1012.2
20260505190003 9 0 0.0 0.0 0.00 0.00 0.00 64 1012.2
20260505185403 9 0 0.0 0.0 0.00 0.00 0.00 64 1012.1
20260505184503 10 0 0.0 3.2 0.00 0.00 0.00 64 1012.0
20260505183603 10 83 1.6 6.4 0.00 0.00 0.00 66 1012.0
20260505182916 10 101 1.6 6.4 0.00 0.00 0.00 74 1011.9
20260505181803 10 95 3.2 9.7 0.00 0.00 0.00 75 1011.9
20260505181119 10 80 3.2 9.7 0.00 0.00 0.00 76 1011.9
20260505180003 10 72 1.6 8.0 0.00 0.00 0.00 76 1011.9
20260505175618 10 72 3.2 8.0 0.00 0.00 0.00 76 1011.9
20260505174717 10 70 4.8 11.3 0.00 0.00 0.00 76 1011.7
20260505173603 11 86 3.2 11.3 0.00 0.00 0.00 75 1011.6
20260505172703 11 94 3.2 9.7 0.00 0.00 0.00 74 1011.6
20260505172019 11 128 3.2 6.4 0.00 0.00 0.00 71 1011.6
20260505170903 11 91 1.6 8.0 0.00 0.00 0.00 68 1011.5
20260505170003 11 96 1.6 6.4 0.00 0.00 0.00 64 1011.6
20260505165617 11 100 1.6 8.0 0.00 0.00 0.00 62 1011.5
20260505164717 11 94 4.8 9.7 0.00 0.00 0.00 61 1011.5
20260505163603 12 78 3.2 9.7 0.00 0.00 0.00 59 1011.5
20260505162915 12 85 3.2 9.7 0.00 0.00 0.00 58 1011.5
20260505161803 12 155 1.6 6.4 0.00 0.00 0.00 52 1011.4
20260505160903 12 133 4.8 11.3 0.00 0.00 0.00 51 1011.4
20260505152703 13 172 8.0 19.3 0.00 0.00 0.00 55 1011.2
20260505151803 13 160 8.0 14.5 0.00 0.00 0.00 58 1011.1
20260505150903 13 172 4.8 14.5 0.00 0.00 0.00 59 1011.2
20260505130216 14 295 6.4 14.5 0.00 0.00 0.00 42 1011.6
20260505124503 14 296 1.6 9.7 0.00 0.00 0.00 43 1011.6
20260505123819 14 268 1.6 8.0 0.00 0.00 0.00 43 1011.5
20260505122703 15 200 1.6 8.0 0.00 0.00 0.00 45 1011.5
20260505122017 15 162 1.6 8.0 0.00 0.00 0.00 46 1011.6
20260505120903 14 154 1.6 4.8 0.00 0.00 0.00 43 1011.6
20260505120216 13 277 1.6 8.0 0.00 0.00 0.00 41 1011.6
20260505115615 13 262 1.6 6.4 0.00 0.00 0.00 40 1011.6
20260505114503 13 287 1.6 6.4 0.00 0.00 0.00 44 1011.6
20260505113603 13 330 1.6 11.3 0.00 0.00 0.00 44 1011.7
20260505112917 12 341 4.8 12.9 0.00 0.00 0.00 42 1011.8
20260505111803 12 326 3.2 9.7 0.00 0.00 0.00 43 1011.8
20260505111116 12 326 4.8 14.5 0.00 0.00 0.00 45 1011.8
20260505110215 12 323 3.2 9.7 0.00 0.00 0.00 46 1011.9